Location: ?????????
(38.4921°N, 22.9787°E)
Time: 04:04:58
(UTC+00:00)

IRIDIUM 114 - Pass Details

Date: 08 December 2025
Orbit: 776 x 779 km, 86.4° (Epoch: 21 January)

Event Time Altitude Azimuth Distance (km) Brightness Sun altitude
Rises 04:36:15 0° 181° (S) 3,245 7.8 -10.9°
Reaches altitude 10° 04:38:35 10° 181° (S) 2,322 7.1 -10.5°
Maximum altitude 04:43:48 90° 239° (WSW) 785 4.4 -9.5°
Drops below altitude 10° 04:49:03 10° 2° (N) 2,339 6.6 -8.6°
Sets 04:51:24 0° 3° (N) 3,271 7.4 -8.2°
